Location: Newark
(3.0500°N, 36.0167°E)
Time: 22:32:31
(UTC+00:00)

A-11 Canister half - Pass Details

Date: 30 August 2019
Orbit: 1527 x 1682 km, 47.3° (Epoch: 15 September)

Event Time Altitude Azimuth Distance (km) Brightness Sun altitude
Rises 14:15:58 0° 340° (NNW) 4,921 12.0 20.4°
Reaches altitude 10° 14:19:52 10° 351° (N) 3,929 11.4 19.4°
Maximum altitude 14:28:03 28° 46° (NE) 2,753 10.2 17.4°
Drops below altitude 10° 14:36:04 10° 101° (E) 3,868 10.6 15.4°
Sets 14:39:47 0° 112° (ESE) 4,833 11.0 14.5°
